POE9000 SBSJ-TBPB

Flight info

Callsign POE9000
Flight time 5h 55m
Altitude 36000
Route N0455F360 VUSM3A GERKA UZ26 ISMOB/N0450F380 UZ26 IBGAM UL576 OPNUP/N0448F400 UL576 NISKI/N0450F390 UL576 TRAPP/N0448F400 UA555 BGI
Aircraft E195/M-SDE3GILORVW/S

Departure

Time 2026-05-06 18:16
Airport Professor Urbano Ernesto Stumpf Airport (SBSJ)

Arrival

Time 2026-05-07 00:12
Airport Grantley Adams International Airport (TBPB)
Time Latitude Longitude Altitude Speed Heading
2026-05-06 17:48 -23.23280 -45.86183 2140 ft 0 kts 45°
2026-05-06 18:08 -23.23278 -45.86182 2140 ft 0 kts 45°
2026-05-06 18:08 -23.23271 -45.86172 2140 ft 2 kts 50°
2026-05-06 18:08 -23.23255 -45.86152 2140 ft 4 kts 50°
2026-05-06 18:09 -23.23229 -45.86119 2140 ft 7 kts 49°
2026-05-06 18:09 -23.23189 -45.86073 2140 ft 9 kts 43°
2026-05-06 18:09 -23.23135 -45.86018 2140 ft 11 kts 46°
2026-05-06 18:09 -23.23078 -45.85953 2140 ft 12 kts 42°
2026-05-06 18:10 -23.23014 -45.85888 2140 ft 12 kts 45°
2026-05-06 18:10 -23.22937 -45.85891 2140 ft 13 kts 319°
2026-05-06 18:10 -23.22869 -45.85962 2140 ft 13 kts 314°
2026-05-06 18:10 -23.22800 -45.86039 2140 ft 14 kts 314°
2026-05-06 18:11 -23.22724 -45.86121 2140 ft 15 kts 315°
2026-05-06 18:11 -23.22645 -45.86206 2140 ft 16 kts 316°
2026-05-06 18:11 -23.22565 -45.86292 2140 ft 16 kts 317°
2026-05-06 18:11 -23.22482 -45.86383 2140 ft 17 kts 314°
2026-05-06 18:12 -23.22395 -45.86477 2140 ft 18 kts 315°
2026-05-06 18:12 -23.22305 -45.86576 2140 ft 18 kts 315°
2026-05-06 18:12 -23.22210 -45.86677 2140 ft 19 kts 315°
2026-05-06 18:12 -23.22115 -45.86789 2140 ft 20 kts 307°
2026-05-06 18:13 -23.22031 -45.86917 2140 ft 21 kts 305°
2026-05-06 18:13 -23.21945 -45.87051 2139 ft 21 kts 305°
2026-05-06 18:13 -23.21930 -45.87149 2139 ft 12 kts 228°
2026-05-06 18:13 -23.22004 -45.87162 2139 ft 12 kts 133°
2026-05-06 18:14 -23.22037 -45.87120 2139 ft 0 kts 135°
2026-05-06 18:15 -23.22077 -45.87077 2139 ft 34 kts 134°
2026-05-06 18:16 -23.22415 -45.86709 2140 ft 101 kts 135°
2026-05-06 18:16 -23.23049 -45.86019 2141 ft 155 kts 134°
2026-05-06 18:16 -23.23893 -45.85127 2398 ft 174 kts 135°
2026-05-06 18:16 -23.24799 -45.84129 2723 ft 198 kts 131°
2026-05-06 18:17 -23.25793 -45.82966 3078 ft 224 kts 129°
2026-05-06 18:17 -23.26335 -45.81360 3649 ft 236 kts 87°
2026-05-06 18:17 -23.25771 -45.79650 4199 ft 252 kts 50°
2026-05-06 18:17 -23.24289 -45.78614 4784 ft 267 kts 14°
2026-05-06 18:18 -23.22426 -45.78307 5457 ft 275 kts 11°
2026-05-06 18:18 -23.20546 -45.77885 6175 ft 281 kts 14°
2026-05-06 18:18 -23.18674 -45.77366 6875 ft 261 kts 16°
2026-05-06 18:18 -23.16992 -45.76859 7473 ft 252 kts 16°
2026-05-06 18:19 -23.15308 -45.76331 8121 ft 255 kts 17°
2026-05-06 18:19 -23.13606 -45.75787 8790 ft 257 kts 16°
2026-05-06 18:19 -23.11836 -45.75706 9470 ft 261 kts 343°
2026-05-06 18:19 -23.10323 -45.76734 10198 ft 261 kts 317°
2026-05-06 18:20 -23.09049 -45.78115 10884 ft 262 kts 316°
2026-05-06 18:20 -23.07771 -45.79521 11556 ft 263 kts 316°
2026-05-06 18:20 -23.06504 -45.80922 12230 ft 263 kts 316°
2026-05-06 18:20 -23.05225 -45.82342 12905 ft 262 kts 316°
2026-05-06 18:21 -23.03974 -45.83731 13567 ft 260 kts 315°
2026-05-06 18:21 -23.02713 -45.85132 14241 ft 257 kts 315°
2026-05-06 18:21 -23.01443 -45.86543 14447 ft 277 kts 315°
2026-05-06 18:21 -23.00035 -45.88107 14506 ft 302 kts 314°
2026-05-06 18:22 -22.98529 -45.89813 14581 ft 325 kts 308°
2026-05-06 18:22 -22.97535 -45.92086 14648 ft 345 kts 281°
2026-05-06 18:22 -22.97143 -45.94700 14972 ft 357 kts 278°
2026-05-06 18:22 -22.96756 -45.97362 15554 ft 360 kts 278°
2026-05-06 18:23 -22.96362 -46.00038 16239 ft 359 kts 277°
2026-05-06 18:23 -22.95966 -46.02713 16868 ft 359 kts 277°
2026-05-06 18:23 -22.95569 -46.05390 17461 ft 361 kts 277°
2026-05-06 18:23 -22.95175 -46.08048 17994 ft 364 kts 277°
2026-05-06 18:24 -22.94767 -46.10789 18558 ft 366 kts 277°
2026-05-06 18:24 -22.94363 -46.13500 19133 ft 367 kts 277°
2026-05-06 18:24 -22.94119 -46.15139 19483 ft 368 kts 277°
2026-05-06 18:24 -22.93710 -46.17877 20056 ft 369 kts 277°
2026-05-06 18:25 -22.93376 -46.20117 20500 ft 370 kts 277°
2026-05-06 18:25 -22.92936 -46.22872 21018 ft 373 kts 282°
2026-05-06 18:25 -22.91954 -46.25485 21506 ft 378 kts 293°
2026-05-06 18:25 -22.90818 -46.28041 22008 ft 380 kts 293°
2026-05-06 18:26 -22.89673 -46.30618 22489 ft 382 kts 292°
2026-05-06 18:26 -22.88526 -46.33195 22965 ft 384 kts 292°
2026-05-06 18:26 -22.87358 -46.35820 23414 ft 387 kts 292°
2026-05-06 18:26 -22.86191 -46.38441 23854 ft 390 kts 292°
2026-05-06 18:27 -22.85002 -46.41107 24294 ft 393 kts 292°
2026-05-06 18:27 -22.83806 -46.43791 24723 ft 395 kts 292°
2026-05-06 18:27 -22.82618 -46.46452 25139 ft 398 kts 291°
2026-05-06 18:27 -22.81411 -46.49157 25547 ft 401 kts 291°
2026-05-06 18:28 -22.80199 -46.51870 25963 ft 403 kts 291°
2026-05-06 18:28 -22.78979 -46.54601 26365 ft 405 kts 291°
2026-05-06 18:28 -22.77741 -46.57369 26742 ft 408 kts 290°
2026-05-06 18:28 -22.76502 -46.60140 27122 ft 411 kts 291°
2026-05-06 18:29 -22.75251 -46.62933 27512 ft 413 kts 290°
2026-05-06 18:29 -22.73996 -46.65737 27908 ft 415 kts 290°
2026-05-06 18:29 -22.72738 -46.68544 28266 ft 418 kts 290°
2026-05-06 18:29 -22.71458 -46.71397 28665 ft 420 kts 290°
2026-05-06 18:30 -22.70189 -46.74227 28991 ft 423 kts 290°
2026-05-06 18:30 -22.68895 -46.77110 29330 ft 426 kts 290°
2026-05-06 18:30 -22.67602 -46.79987 29677 ft 428 kts 290°
2026-05-06 18:30 -22.66305 -46.82873 30018 ft 430 kts 289°
2026-05-06 18:31 -22.64982 -46.85815 30383 ft 431 kts 289°
2026-05-06 18:31 -22.63682 -46.88704 30709 ft 433 kts 289°
2026-05-06 18:31 -22.62351 -46.91659 31033 ft 435 kts 289°
2026-05-06 18:31 -22.61041 -46.94568 31319 ft 437 kts 289°
2026-05-06 18:32 -22.59704 -46.97532 31645 ft 438 kts 288°
2026-05-06 18:32 -22.58283 -47.00456 31949 ft 445 kts 295°
2026-05-06 18:32 -22.56418 -47.03159 32339 ft 453 kts 304°
2026-05-06 18:32 -22.54141 -47.05520 32721 ft 461 kts 314°
2026-05-06 18:33 -22.51545 -47.07592 33108 ft 465 kts 320°
2026-05-06 18:33 -22.48656 -47.09319 33464 ft 475 kts 329°
2026-05-06 18:33 -22.45555 -47.10525 33897 ft 481 kts 339°
2026-05-06 18:33 -22.42216 -47.11220 34297 ft 487 kts 349°
2026-05-06 18:34 -22.38837 -47.11354 34662 ft 493 kts 359°
2026-05-06 18:34 -22.35411 -47.11104 35073 ft 491 kts 356°
2026-05-06 18:34 -22.32004 -47.11301 35460 ft 485 kts 347°
2026-05-06 18:34 -22.28704 -47.11847 35872 ft 483 kts 346°
2026-05-06 18:35 -22.25342 -47.12388 36158 ft 484 kts 346°
2026-05-06 18:35 -22.21990 -47.12920 36162 ft 487 kts 346°
2026-05-06 18:35 -22.15348 -47.13969 36163 ft 481 kts 346°
2026-05-06 18:36 -22.08707 -47.15015 36166 ft 481 kts 346°
2026-05-06 18:36 -22.01993 -47.16073 36174 ft 487 kts 346°
2026-05-06 18:37 -21.95333 -47.17121 36173 ft 481 kts 346°
2026-05-06 18:37 -21.88699 -47.18164 36165 ft 480 kts 346°
2026-05-06 18:38 -21.82073 -47.19204 36156 ft 480 kts 346°
2026-05-06 18:38 -21.75398 -47.20167 36155 ft 482 kts 348°
2026-05-06 18:39 -21.68758 -47.21037 36161 ft 482 kts 348°
2026-05-06 18:40 -21.58733 -47.22354 36162 ft 482 kts 348°
2026-05-06 18:40 -21.52072 -47.23228 36163 ft 482 kts 348°
2026-05-06 18:41 -21.45395 -47.24105 36179 ft 484 kts 348°
2026-05-06 18:41 -21.38820 -47.24964 36071 ft 465 kts 348°
2026-05-06 18:41 -21.35574 -47.25397 36042 ft 476 kts 346°
2026-05-06 18:42 -21.32262 -47.25956 36028 ft 486 kts 346°
2026-05-06 18:42 -21.25421 -47.27105 35971 ft 503 kts 346°
2026-05-06 18:42 -21.22013 -47.27673 36117 ft 498 kts 346°
2026-05-06 18:43 -21.18556 -47.28250 36513 ft 499 kts 346°
2026-05-06 18:43 -21.15150 -47.28818 36969 ft 498 kts 346°
2026-05-06 18:43 -21.11694 -47.29395 37437 ft 497 kts 346°
2026-05-06 18:43 -21.08318 -47.29958 37895 ft 497 kts 346°
2026-05-06 18:44 -21.04876 -47.30531 38197 ft 498 kts 346°
2026-05-06 18:44 -21.01493 -47.31093 38177 ft 485 kts 346°
2026-05-06 18:44 -20.98167 -47.31647 38195 ft 476 kts 346°
2026-05-06 18:45 -20.91606 -47.32739 38216 ft 477 kts 346°
2026-05-06 18:45 -20.85025 -47.33834 38201 ft 480 kts 346°
2026-05-06 18:46 -20.78431 -47.34929 38201 ft 478 kts 346°
2026-05-06 18:46 -20.71878 -47.36016 38202 ft 478 kts 345°
2026-05-06 18:47 -20.65275 -47.37111 38207 ft 478 kts 345°
2026-05-06 18:47 -20.58689 -47.38201 38210 ft 477 kts 345°
2026-05-06 18:48 -20.52080 -47.39204 38221 ft 479 kts 347°
2026-05-06 18:48 -20.45509 -47.40194 38214 ft 478 kts 347°
2026-05-06 18:48 -20.42236 -47.40686 37990 ft 466 kts 346°
2026-05-06 18:49 -20.39082 -47.41159 37943 ft 449 kts 346°
2026-05-06 18:49 -20.32788 -47.42110 37899 ft 463 kts 346°
2026-05-06 18:50 -20.26281 -47.43089 37895 ft 482 kts 347°
2026-05-06 18:50 -20.19542 -47.44101 37865 ft 493 kts 347°
2026-05-06 18:51 -20.12733 -47.45123 37804 ft 493 kts 347°
2026-05-06 18:51 -20.05915 -47.46146 37811 ft 501 kts 347°
2026-05-06 18:52 -19.98916 -47.47194 38091 ft 511 kts 347°
2026-05-06 18:52 -19.91922 -47.48241 38200 ft 507 kts 347°
2026-05-06 18:53 -19.84944 -47.49284 38189 ft 505 kts 347°
2026-05-06 18:53 -19.77959 -47.50328 38195 ft 505 kts 347°
2026-05-06 18:54 -19.71017 -47.51353 38206 ft 504 kts 347°
2026-05-06 18:54 -19.64048 -47.52373 38212 ft 505 kts 347°
2026-05-06 18:55 -19.57094 -47.53390 38210 ft 505 kts 347°
2026-05-06 18:55 -19.50103 -47.54411 38209 ft 505 kts 347°
2026-05-06 18:56 -19.43144 -47.55427 38208 ft 505 kts 347°
2026-05-06 18:56 -19.36180 -47.56442 38212 ft 503 kts 347°
2026-05-06 18:57 -19.29230 -47.57455 38212 ft 503 kts 347°
2026-05-06 18:57 -19.22306 -47.58463 38213 ft 503 kts 347°
2026-05-06 18:58 -19.15363 -47.59473 38217 ft 502 kts 347°
2026-05-06 18:58 -19.09955 -47.60259 38217 ft 501 kts 347°
2026-05-06 18:59 -19.03031 -47.61265 38213 ft 503 kts 347°
2026-05-06 18:59 -18.96086 -47.62231 38217 ft 502 kts 347°
2026-05-06 19:00 -18.89140 -47.63198 38212 ft 502 kts 347°
2026-05-06 19:00 -18.82224 -47.64158 38201 ft 501 kts 347°
2026-05-06 19:01 -18.75273 -47.65123 38199 ft 500 kts 348°
2026-05-06 19:01 -18.68367 -47.66082 38199 ft 503 kts 348°
2026-05-06 19:02 -18.61401 -47.67047 38187 ft 502 kts 348°
2026-05-06 19:02 -18.54520 -47.68050 38173 ft 502 kts 347°
2026-05-06 19:03 -18.47583 -47.69067 38164 ft 500 kts 347°
2026-05-06 19:03 -18.40676 -47.70079 38159 ft 501 kts 347°
2026-05-06 19:04 -18.33770 -47.71090 38160 ft 501 kts 347°
2026-05-06 19:04 -18.26877 -47.72171 38160 ft 498 kts 346°
2026-05-06 19:05 -18.20038 -47.73322 38163 ft 498 kts 346°
2026-05-06 19:05 -18.13189 -47.74470 38162 ft 498 kts 346°
2026-05-06 19:06 -18.06320 -47.75619 38161 ft 497 kts 346°
2026-05-06 19:06 -17.99453 -47.76769 38165 ft 499 kts 346°
2026-05-06 19:07 -17.92602 -47.77914 38166 ft 498 kts 346°
2026-05-06 19:07 -17.85785 -47.79053 38167 ft 496 kts 346°
2026-05-06 19:08 -17.78945 -47.80195 38170 ft 497 kts 346°
2026-05-06 19:08 -17.72096 -47.81337 38176 ft 496 kts 346°
2026-05-06 19:09 -17.65238 -47.82480 38177 ft 496 kts 346°
2026-05-06 19:09 -17.58437 -47.83613 38176 ft 496 kts 346°
2026-05-06 19:10 -17.51646 -47.84743 38180 ft 494 kts 346°
2026-05-06 19:10 -17.44842 -47.85874 38180 ft 496 kts 346°
2026-05-06 19:11 -17.38033 -47.87006 38186 ft 494 kts 346°
2026-05-06 19:11 -17.31224 -47.88136 38184 ft 495 kts 346°
2026-05-06 19:12 -17.24402 -47.89268 38188 ft 493 kts 346°
2026-05-06 19:12 -17.17635 -47.90390 38184 ft 493 kts 346°
2026-05-06 19:13 -17.10825 -47.91518 38180 ft 493 kts 346°
2026-05-06 19:13 -17.04048 -47.92640 38173 ft 493 kts 346°
2026-05-06 19:14 -16.97280 -47.93760 38172 ft 492 kts 346°
2026-05-06 19:14 -16.90514 -47.94878 38173 ft 491 kts 346°
2026-05-06 19:15 -16.83725 -47.95999 38163 ft 491 kts 346°
2026-05-06 19:15 -16.76993 -47.97110 38163 ft 490 kts 346°
2026-05-06 19:16 -16.70221 -47.98227 38166 ft 490 kts 346°
2026-05-06 19:16 -16.63514 -47.99333 38168 ft 491 kts 346°
2026-05-06 19:17 -16.56775 -48.00443 38174 ft 490 kts 346°
2026-05-06 19:17 -16.50000 -48.01558 38178 ft 490 kts 346°
2026-05-06 19:18 -16.43263 -48.02666 38184 ft 488 kts 346°
2026-05-06 19:18 -16.36540 -48.03771 38188 ft 489 kts 346°
2026-05-06 19:19 -16.29820 -48.04875 38189 ft 486 kts 346°
2026-05-06 19:19 -16.23162 -48.05968 38189 ft 486 kts 346°
2026-05-06 19:20 -16.16429 -48.07072 38198 ft 486 kts 346°
2026-05-06 19:20 -16.09726 -48.08170 38204 ft 485 kts 346°
2026-05-06 19:21 -16.03052 -48.09264 38212 ft 486 kts 346°
2026-05-06 19:21 -15.96347 -48.10361 38217 ft 486 kts 346°
2026-05-06 19:22 -15.89658 -48.11455 38215 ft 485 kts 346°
2026-05-06 19:22 -15.82987 -48.12546 38202 ft 484 kts 346°
2026-05-06 19:23 -15.76313 -48.13637 38198 ft 485 kts 346°
2026-05-06 19:23 -15.69675 -48.14719 38191 ft 478 kts 346°
2026-05-06 19:23 -15.66431 -48.15247 38174 ft 458 kts 346°
2026-05-06 19:24 -15.63343 -48.15751 38175 ft 446 kts 346°
2026-05-06 19:24 -15.57142 -48.16764 38191 ft 455 kts 346°
2026-05-06 19:25 -15.50897 -48.17781 38177 ft 455 kts 346°
2026-05-06 19:25 -15.44520 -48.18251 38177 ft 459 kts 354°
2026-05-06 19:26 -15.38117 -48.18450 38168 ft 458 kts 354°
2026-05-06 19:26 -15.31747 -48.18650 38167 ft 459 kts 353°
2026-05-06 19:27 -15.25365 -48.18851 38159 ft 458 kts 353°
2026-05-06 19:27 -15.18959 -48.19053 38158 ft 459 kts 354°
2026-05-06 19:28 -15.12593 -48.19252 38161 ft 457 kts 354°
2026-05-06 19:28 -15.06223 -48.19452 38165 ft 456 kts 354°
2026-05-06 19:29 -14.99856 -48.19652 38163 ft 455 kts 353°
2026-05-06 19:29 -14.93503 -48.19851 38165 ft 456 kts 354°
2026-05-06 19:30 -14.87162 -48.20033 38159 ft 455 kts 354°
2026-05-06 19:30 -14.80827 -48.20209 38162 ft 455 kts 354°
2026-05-06 19:31 -14.74474 -48.20387 38166 ft 455 kts 354°
2026-05-06 19:31 -14.64939 -48.20654 38155 ft 456 kts 354°
2026-05-06 19:32 -14.58576 -48.20831 38148 ft 457 kts 354°
2026-05-06 19:32 -14.52234 -48.21008 38139 ft 455 kts 354°
2026-05-06 19:33 -14.45892 -48.21185 38127 ft 454 kts 353°
2026-05-06 19:33 -14.39572 -48.21361 38108 ft 455 kts 354°
2026-05-06 19:34 -14.33219 -48.21538 38080 ft 455 kts 354°
2026-05-06 19:34 -14.26870 -48.21715 38063 ft 455 kts 354°
2026-05-06 19:35 -14.20546 -48.21891 38050 ft 455 kts 354°
2026-05-06 19:35 -14.14205 -48.22067 38048 ft 454 kts 354°
2026-05-06 19:36 -14.07902 -48.22242 38038 ft 455 kts 354°
2026-05-06 19:36 -14.01547 -48.22419 38034 ft 454 kts 354°
2026-05-06 19:37 -13.95256 -48.22593 38036 ft 454 kts 354°
2026-05-06 19:37 -13.88910 -48.22769 38027 ft 453 kts 354°
2026-05-06 19:38 -13.82620 -48.22944 38019 ft 453 kts 354°
2026-05-06 19:38 -13.76284 -48.23119 38018 ft 452 kts 354°
2026-05-06 19:39 -13.70010 -48.23293 38017 ft 451 kts 354°
2026-05-06 19:39 -13.63699 -48.23468 38020 ft 453 kts 354°
2026-05-06 19:40 -13.57394 -48.23642 38020 ft 451 kts 354°
2026-05-06 19:40 -13.51099 -48.23816 38019 ft 451 kts 354°
2026-05-06 19:41 -13.44830 -48.23989 38023 ft 450 kts 354°
2026-05-06 19:41 -13.38527 -48.24163 38018 ft 450 kts 354°
2026-05-06 19:42 -13.32243 -48.24337 38015 ft 450 kts 354°
2026-05-06 19:42 -13.25968 -48.24510 38011 ft 449 kts 354°
2026-05-06 19:43 -13.19689 -48.24683 38008 ft 449 kts 354°
2026-05-06 19:43 -13.13427 -48.24856 38005 ft 450 kts 354°
2026-05-06 19:44 -13.07156 -48.25029 38003 ft 451 kts 355°
2026-05-06 19:44 -13.00904 -48.25201 38004 ft 449 kts 354°
2026-05-06 19:45 -12.94651 -48.25373 38001 ft 450 kts 355°
2026-05-06 19:45 -12.88349 -48.25546 37998 ft 449 kts 355°
2026-05-06 19:46 -12.82111 -48.25718 37995 ft 449 kts 355°
2026-05-06 19:46 -12.75858 -48.25890 37991 ft 450 kts 354°
2026-05-06 19:47 -12.69598 -48.26062 37989 ft 448 kts 355°
2026-05-06 19:47 -12.63364 -48.26232 37985 ft 448 kts 355°
2026-05-06 19:48 -12.57107 -48.26405 37986 ft 448 kts 354°
2026-05-06 19:48 -12.50859 -48.26576 37986 ft 448 kts 355°
2026-05-06 19:49 -12.44641 -48.26746 37986 ft 448 kts 355°
2026-05-06 19:49 -12.38410 -48.26917 37984 ft 447 kts 355°
2026-05-06 19:50 -12.32162 -48.27087 37985 ft 447 kts 355°
2026-05-06 19:50 -12.25953 -48.27256 37985 ft 446 kts 355°
2026-05-06 19:51 -12.19725 -48.27425 37983 ft 445 kts 355°
2026-05-06 19:51 -12.13545 -48.27594 37985 ft 446 kts 355°
2026-05-06 19:52 -12.07293 -48.27764 37986 ft 447 kts 355°
2026-05-06 19:52 -12.01081 -48.27933 37988 ft 446 kts 355°
2026-05-06 19:53 -11.94894 -48.28101 37989 ft 445 kts 355°
2026-05-06 19:53 -11.88700 -48.28269 37983 ft 444 kts 355°
2026-05-06 19:54 -11.82475 -48.28438 37983 ft 444 kts 355°
2026-05-06 19:54 -11.76291 -48.28606 37983 ft 445 kts 355°
2026-05-06 19:55 -11.70112 -48.28773 37982 ft 445 kts 355°
2026-05-06 19:55 -11.63911 -48.28944 37981 ft 445 kts 355°
2026-05-06 19:56 -11.57672 -48.29115 37981 ft 445 kts 355°
2026-05-06 19:56 -11.51492 -48.29285 37979 ft 445 kts 355°
2026-05-06 19:57 -11.45270 -48.29456 37978 ft 444 kts 355°
2026-05-06 19:57 -11.39073 -48.29626 37978 ft 445 kts 355°
2026-05-06 19:58 -11.32889 -48.29795 37977 ft 444 kts 355°
2026-05-06 19:58 -11.26720 -48.30043 37979 ft 444 kts 353°
2026-05-06 19:59 -11.20558 -48.30456 37974 ft 445 kts 353°
2026-05-06 19:59 -11.14357 -48.30863 37971 ft 444 kts 353°
2026-05-06 20:00 -11.08193 -48.31266 37967 ft 444 kts 353°
2026-05-06 20:00 -11.02008 -48.31670 37963 ft 443 kts 353°
2026-05-06 20:01 -10.95850 -48.32072 37964 ft 442 kts 354°
2026-05-06 20:01 -10.89685 -48.32420 37968 ft 443 kts 354°
2026-05-06 20:02 -10.83486 -48.32769 37972 ft 444 kts 354°
2026-05-06 20:02 -10.77329 -48.33116 37971 ft 444 kts 354°
2026-05-06 20:03 -10.71118 -48.33466 37965 ft 445 kts 354°
2026-05-06 20:03 -10.64938 -48.33814 37970 ft 445 kts 354°
2026-05-06 20:04 -10.58753 -48.34162 37972 ft 444 kts 354°
2026-05-06 20:04 -10.52555 -48.34511 37972 ft 445 kts 354°
2026-05-06 20:05 -10.46383 -48.34858 37976 ft 444 kts 354°
2026-05-06 20:05 -10.40175 -48.35207 37973 ft 445 kts 354°
2026-05-06 20:06 -10.34054 -48.35770 37977 ft 441 kts 344°
2026-05-06 20:06 -10.28345 -48.37922 37982 ft 436 kts 332°
2026-05-06 20:07 -10.22798 -48.40478 37973 ft 437 kts 332°
2026-05-06 20:07 -10.17245 -48.43023 37971 ft 437 kts 332°
2026-05-06 20:08 -10.11723 -48.45551 37967 ft 437 kts 332°
2026-05-06 20:08 -10.06174 -48.48090 37965 ft 437 kts 332°
2026-05-06 20:09 -10.00620 -48.50630 37964 ft 437 kts 332°
2026-05-06 20:09 -9.95068 -48.53169 37963 ft 437 kts 332°
2026-05-06 20:10 -9.89500 -48.55713 37962 ft 436 kts 332°
2026-05-06 20:10 -9.83971 -48.58239 37957 ft 436 kts 332°
2026-05-06 20:11 -9.78426 -48.60773 37961 ft 437 kts 332°
2026-05-06 20:11 -9.72873 -48.63308 37963 ft 437 kts 332°
2026-05-06 20:12 -9.67366 -48.65873 37964 ft 436 kts 328°
2026-05-06 20:12 -9.61988 -48.68792 37973 ft 437 kts 329°
2026-05-06 20:13 -9.56625 -48.71668 37975 ft 437 kts 329°
2026-05-06 20:13 -9.51250 -48.74546 37976 ft 436 kts 329°
2026-05-06 20:14 -9.45859 -48.77431 37977 ft 436 kts 329°
2026-05-06 20:14 -9.40501 -48.80298 37974 ft 436 kts 329°
2026-05-06 20:15 -9.35113 -48.83179 37968 ft 437 kts 329°
2026-05-06 20:15 -9.29719 -48.86062 37963 ft 437 kts 329°
2026-05-06 20:16 -9.24353 -48.88930 37961 ft 437 kts 329°
2026-05-06 20:16 -9.18949 -48.91817 37958 ft 438 kts 329°
2026-05-06 20:17 -9.13539 -48.94620 37954 ft 438 kts 330°
2026-05-06 20:17 -9.08075 -48.97366 37958 ft 439 kts 330°
2026-05-06 20:18 -9.02595 -49.00122 37953 ft 439 kts 330°
2026-05-06 20:18 -8.97111 -49.02880 37950 ft 439 kts 330°
2026-05-06 20:19 -8.91648 -49.05627 37945 ft 438 kts 331°
2026-05-06 20:19 -8.86194 -49.08368 37937 ft 437 kts 331°
2026-05-06 20:20 -8.80744 -49.11107 37934 ft 437 kts 331°
2026-05-06 20:20 -8.75281 -49.13850 37930 ft 436 kts 330°
2026-05-06 20:21 -8.69853 -49.16575 37928 ft 436 kts 331°
2026-05-06 20:21 -8.64417 -49.19303 37929 ft 436 kts 331°
2026-05-06 20:22 -8.58979 -49.22032 37927 ft 436 kts 331°
2026-05-06 20:22 -8.53534 -49.24763 37926 ft 435 kts 331°
2026-05-06 20:23 -8.48133 -49.27471 37926 ft 435 kts 331°
2026-05-06 20:23 -8.42685 -49.30202 37925 ft 434 kts 331°
2026-05-06 20:24 -8.37270 -49.32916 37926 ft 435 kts 331°
2026-05-06 20:24 -8.31865 -49.35623 37927 ft 434 kts 331°
2026-05-06 20:25 -8.26444 -49.38338 37928 ft 433 kts 331°
2026-05-06 20:25 -8.21049 -49.41039 37930 ft 433 kts 331°
2026-05-06 20:26 -8.15626 -49.43753 37930 ft 432 kts 331°
2026-05-06 20:26 -8.10240 -49.46458 37934 ft 432 kts 331°
2026-05-06 20:27 -8.04878 -49.49189 37934 ft 432 kts 331°
2026-05-06 20:27 -7.99525 -49.51913 37938 ft 432 kts 331°
2026-05-06 20:28 -7.94125 -49.54660 37945 ft 432 kts 331°
2026-05-06 20:28 -7.88764 -49.57386 37946 ft 432 kts 331°
2026-05-06 20:29 -7.83375 -49.60126 37952 ft 431 kts 331°
2026-05-06 20:29 -7.78027 -49.62844 37952 ft 431 kts 331°
2026-05-06 20:30 -7.69994 -49.66926 37954 ft 430 kts 331°
2026-05-06 20:31 -7.64633 -49.69648 37953 ft 430 kts 332°
2026-05-06 20:31 -7.59261 -49.72375 37953 ft 430 kts 332°
2026-05-06 20:32 -7.53919 -49.75050 37955 ft 430 kts 332°
2026-05-06 20:32 -7.48537 -49.77742 37957 ft 431 kts 332°
2026-05-06 20:33 -7.43179 -49.80423 37959 ft 430 kts 332°
2026-05-06 20:33 -7.37788 -49.83119 37959 ft 430 kts 332°
2026-05-06 20:34 -7.32425 -49.85800 37960 ft 430 kts 332°
2026-05-06 20:34 -7.27066 -49.88479 37959 ft 430 kts 332°
2026-05-06 20:35 -7.21687 -49.91167 37958 ft 430 kts 332°
2026-05-06 20:35 -7.16333 -49.93842 37959 ft 430 kts 332°
2026-05-06 20:36 -7.10970 -49.96520 37958 ft 429 kts 332°
2026-05-06 20:36 -7.05630 -49.99186 37956 ft 429 kts 332°
2026-05-06 20:37 -7.00264 -50.01865 37956 ft 430 kts 332°
2026-05-06 20:37 -6.94905 -50.04539 37959 ft 430 kts 332°
2026-05-06 20:38 -6.89528 -50.07222 37961 ft 430 kts 332°
2026-05-06 20:38 -6.84155 -50.09901 37961 ft 431 kts 332°
2026-05-06 20:39 -6.78767 -50.12589 37960 ft 430 kts 332°
2026-05-06 20:39 -6.73398 -50.15266 37957 ft 430 kts 332°
2026-05-06 20:40 -6.68026 -50.17943 37957 ft 430 kts 332°
2026-05-06 20:40 -6.62660 -50.20614 37957 ft 430 kts 332°
2026-05-06 20:41 -6.57296 -50.23281 37957 ft 430 kts 332°
2026-05-06 20:41 -6.51934 -50.25946 37959 ft 430 kts 332°
2026-05-06 20:42 -6.46545 -50.28624 37960 ft 431 kts 332°
2026-05-06 20:42 -6.41142 -50.31308 37964 ft 431 kts 333°
2026-05-06 20:43 -6.35788 -50.33967 37969 ft 431 kts 333°
2026-05-06 20:43 -6.30379 -50.36653 37975 ft 431 kts 332°
2026-05-06 20:44 -6.25010 -50.39318 37984 ft 431 kts 333°
2026-05-06 20:44 -6.22275 -50.40675 38138 ft 437 kts 332°
2026-05-06 20:44 -6.19559 -50.42023 38539 ft 438 kts 333°
2026-05-06 20:44 -6.16822 -50.43382 39100 ft 436 kts 332°
2026-05-06 20:45 -6.14130 -50.44717 39681 ft 434 kts 332°
2026-05-06 20:45 -6.11410 -50.46066 39956 ft 431 kts 332°
2026-05-06 20:45 -6.08721 -50.47401 39964 ft 429 kts 332°
2026-05-06 20:46 -6.03359 -50.50060 39953 ft 431 kts 332°
2026-05-06 20:46 -5.97968 -50.52733 39939 ft 428 kts 332°
2026-05-06 20:47 -5.92695 -50.55347 39938 ft 423 kts 332°
2026-05-06 20:47 -5.87403 -50.57970 39937 ft 423 kts 332°
2026-05-06 20:48 -5.82102 -50.60597 39937 ft 424 kts 332°
2026-05-06 20:48 -5.76806 -50.63221 39942 ft 423 kts 332°
2026-05-06 20:49 -5.71497 -50.65851 39956 ft 424 kts 332°
2026-05-06 20:49 -5.66205 -50.68471 39956 ft 424 kts 332°
2026-05-06 20:50 -5.60921 -50.71088 39956 ft 423 kts 332°
2026-05-06 20:50 -5.55649 -50.73699 39959 ft 423 kts 332°
2026-05-06 20:51 -5.50360 -50.76320 39952 ft 423 kts 332°
2026-05-06 20:51 -5.45055 -50.78947 39957 ft 423 kts 332°
2026-05-06 20:52 -5.39757 -50.81570 39952 ft 423 kts 333°
2026-05-06 20:52 -5.34492 -50.84177 39948 ft 423 kts 332°
2026-05-06 20:53 -5.29188 -50.86803 39951 ft 422 kts 332°
2026-05-06 20:53 -5.23954 -50.89393 39945 ft 421 kts 332°
2026-05-06 20:54 -5.18656 -50.92014 39945 ft 422 kts 333°
2026-05-06 20:54 -5.13387 -50.94621 39943 ft 423 kts 333°
2026-05-06 20:55 -5.08114 -50.97230 39943 ft 423 kts 333°
2026-05-06 20:55 -5.02822 -50.99846 39946 ft 422 kts 333°
2026-05-06 20:56 -4.97553 -51.02452 39946 ft 422 kts 333°
2026-05-06 20:56 -4.92300 -51.05048 39943 ft 422 kts 333°
2026-05-06 20:57 -4.87002 -51.07667 39940 ft 422 kts 333°
2026-05-06 20:57 -4.81717 -51.10281 39937 ft 424 kts 332°
2026-05-06 20:58 -4.76444 -51.12893 39936 ft 423 kts 333°
2026-05-06 20:58 -4.71157 -51.15512 39931 ft 423 kts 333°
2026-05-06 20:59 -4.65874 -51.18128 39928 ft 423 kts 333°
2026-05-06 20:59 -4.60566 -51.20757 39924 ft 423 kts 333°
2026-05-06 21:00 -4.55318 -51.23356 39917 ft 422 kts 333°
2026-05-06 21:00 -4.49994 -51.25990 39920 ft 425 kts 333°
2026-05-06 21:01 -4.44678 -51.28622 39917 ft 424 kts 333°
2026-05-06 21:01 -4.39385 -51.31241 39916 ft 424 kts 333°
2026-05-06 21:02 -4.34080 -51.33865 39915 ft 426 kts 333°
2026-05-06 21:02 -4.28744 -51.36505 39914 ft 426 kts 333°
2026-05-06 21:03 -4.23416 -51.39140 39920 ft 427 kts 333°
2026-05-06 21:03 -4.18100 -51.41769 39921 ft 427 kts 333°
2026-05-06 21:04 -4.12767 -51.44407 39920 ft 428 kts 333°
2026-05-06 21:04 -4.07396 -51.47062 39921 ft 427 kts 333°
2026-05-06 21:05 -4.02062 -51.49699 39917 ft 427 kts 333°
2026-05-06 21:05 -3.96753 -51.52322 39918 ft 427 kts 333°
2026-05-06 21:06 -3.91383 -51.54975 39918 ft 428 kts 333°
2026-05-06 21:06 -3.86010 -51.57549 39916 ft 427 kts 334°
2026-05-06 21:07 -3.80658 -51.60110 39915 ft 427 kts 334°
2026-05-06 21:07 -3.75279 -51.62684 39916 ft 427 kts 334°
2026-05-06 21:08 -3.69939 -51.65239 39914 ft 427 kts 334°
2026-05-06 21:08 -3.64560 -51.67813 39914 ft 426 kts 334°
2026-05-06 21:09 -3.59207 -51.70374 39914 ft 426 kts 334°
2026-05-06 21:09 -3.53854 -51.72934 39913 ft 426 kts 334°
2026-05-06 21:10 -3.48493 -51.75498 39906 ft 426 kts 334°
2026-05-06 21:10 -3.43127 -51.78064 39901 ft 427 kts 334°
2026-05-06 21:11 -3.37751 -51.80634 39895 ft 427 kts 334°
2026-05-06 21:11 -3.32428 -51.83264 39891 ft 427 kts 333°
2026-05-06 21:12 -3.27116 -51.85906 39894 ft 426 kts 333°
2026-05-06 21:12 -3.21771 -51.88563 39893 ft 426 kts 333°
2026-05-06 21:13 -3.16456 -51.91204 39891 ft 426 kts 333°
2026-05-06 21:13 -3.11167 -51.93833 39894 ft 426 kts 333°
2026-05-06 21:14 -3.05843 -51.96478 39890 ft 425 kts 333°
2026-05-06 21:14 -3.00510 -51.99128 39890 ft 425 kts 333°
2026-05-06 21:15 -2.95186 -52.01773 39892 ft 425 kts 333°
2026-05-06 21:15 -2.89892 -52.04402 39891 ft 425 kts 333°
2026-05-06 21:16 -2.84610 -52.07026 39895 ft 425 kts 333°
2026-05-06 21:16 -2.79293 -52.09666 39899 ft 426 kts 333°
2026-05-06 21:17 -2.73970 -52.12310 39905 ft 425 kts 333°
2026-05-06 21:17 -2.68665 -52.14943 39911 ft 426 kts 333°
2026-05-06 21:18 -2.63353 -52.17581 39912 ft 426 kts 333°
2026-05-06 21:18 -2.58018 -52.20229 39910 ft 427 kts 333°
2026-05-06 21:19 -2.52717 -52.22861 39910 ft 425 kts 333°
2026-05-06 21:19 -2.47389 -52.25505 39908 ft 426 kts 333°
2026-05-06 21:20 -2.42066 -52.28147 39911 ft 426 kts 333°
2026-05-06 21:20 -2.36751 -52.30784 39912 ft 425 kts 333°
2026-05-06 21:21 -2.31448 -52.33416 39910 ft 425 kts 333°
2026-05-06 21:21 -2.26120 -52.36059 39912 ft 426 kts 333°
2026-05-06 21:22 -2.20828 -52.38685 39910 ft 425 kts 333°
2026-05-06 21:22 -2.15485 -52.41335 39908 ft 426 kts 333°
2026-05-06 21:23 -2.10214 -52.43950 39908 ft 424 kts 333°
2026-05-06 21:23 -2.04894 -52.46589 39910 ft 425 kts 333°
2026-05-06 21:24 -1.99581 -52.49213 39908 ft 426 kts 334°
2026-05-06 21:24 -1.94279 -52.51829 39908 ft 425 kts 334°
2026-05-06 21:25 -1.88961 -52.54454 39905 ft 425 kts 333°
2026-05-06 21:25 -1.83667 -52.57066 39906 ft 425 kts 333°
2026-05-06 21:26 -1.78338 -52.59696 39907 ft 424 kts 333°
2026-05-06 21:26 -1.73051 -52.62305 39909 ft 424 kts 333°
2026-05-06 21:27 -1.67768 -52.64911 39913 ft 424 kts 333°
2026-05-06 21:27 -1.62439 -52.67540 39914 ft 424 kts 333°
2026-05-06 21:28 -1.57146 -52.70151 39915 ft 425 kts 333°
2026-05-06 21:28 -1.51853 -52.72762 39919 ft 425 kts 333°
2026-05-06 21:29 -1.46535 -52.75386 39925 ft 424 kts 333°
2026-05-06 21:29 -1.41225 -52.78005 39931 ft 424 kts 333°
2026-05-06 21:30 -1.35934 -52.80615 39931 ft 423 kts 333°
2026-05-06 21:30 -1.30672 -52.83210 39934 ft 424 kts 333°
2026-05-06 21:31 -1.25368 -52.85826 39936 ft 424 kts 333°
2026-05-06 21:31 -1.20042 -52.88452 39942 ft 424 kts 333°
2026-05-06 21:32 -1.14740 -52.91067 39942 ft 424 kts 333°
2026-05-06 21:32 -1.06803 -52.94980 39946 ft 424 kts 333°
2026-05-06 21:33 -1.01487 -52.97602 39949 ft 423 kts 333°
2026-05-06 21:33 -0.96225 -53.00196 39954 ft 423 kts 333°
2026-05-06 21:34 -0.90937 -53.02803 39952 ft 423 kts 333°
2026-05-06 21:34 -0.85619 -53.05425 39952 ft 423 kts 333°
2026-05-06 21:35 -0.80371 -53.08013 39951 ft 423 kts 333°
2026-05-06 21:35 -0.75085 -53.10618 39950 ft 424 kts 333°
2026-05-06 21:36 -0.69754 -53.13247 39957 ft 424 kts 333°
2026-05-06 21:36 -0.64481 -53.15845 39964 ft 422 kts 333°
2026-05-06 21:37 -0.59739 -53.18183 39965 ft 420 kts 332°
2026-05-06 21:37 -0.54507 -53.20763 39965 ft 420 kts 333°
2026-05-06 21:38 -0.49252 -53.23353 39969 ft 420 kts 333°
2026-05-06 21:38 -0.43984 -53.25950 39966 ft 421 kts 333°
2026-05-06 21:39 -0.38727 -53.28541 39967 ft 422 kts 333°
2026-05-06 21:39 -0.33450 -53.31142 39966 ft 419 kts 333°
2026-05-06 21:40 -0.28259 -53.33701 39967 ft 416 kts 333°
2026-05-06 21:40 -0.23062 -53.36263 39967 ft 417 kts 333°
2026-05-06 21:41 -0.17836 -53.38839 39973 ft 418 kts 333°
2026-05-06 21:41 -0.12623 -53.41408 39974 ft 419 kts 333°
2026-05-06 21:42 -0.07367 -53.43998 39978 ft 420 kts 333°
2026-05-06 21:42 -0.02137 -53.46577 39976 ft 419 kts 333°
2026-05-06 21:43 0.03119 -53.49167 39977 ft 417 kts 333°
2026-05-06 21:43 0.08293 -53.51717 39976 ft 416 kts 333°
2026-05-06 21:44 0.13516 -53.54292 39974 ft 416 kts 333°
2026-05-06 21:44 0.18691 -53.56842 39973 ft 417 kts 333°
2026-05-06 21:45 0.23929 -53.59425 39969 ft 418 kts 333°
2026-05-06 21:45 0.29159 -53.61999 39968 ft 419 kts 333°
2026-05-06 21:46 0.34398 -53.64573 39968 ft 419 kts 333°
2026-05-06 21:46 0.39639 -53.67149 39969 ft 417 kts 333°
2026-05-06 21:47 0.44825 -53.69698 39973 ft 417 kts 333°
2026-05-06 21:47 0.50063 -53.72272 39979 ft 417 kts 334°
2026-05-06 21:48 0.55283 -53.74838 39979 ft 419 kts 334°
2026-05-06 21:48 0.60548 -53.77426 39974 ft 420 kts 333°
2026-05-06 21:49 0.65807 -53.80011 39971 ft 421 kts 333°
2026-05-06 21:49 0.71064 -53.82595 39972 ft 422 kts 333°
2026-05-06 21:50 0.76331 -53.85184 39971 ft 421 kts 333°
2026-05-06 21:50 0.81615 -53.87781 39972 ft 423 kts 334°
2026-05-06 21:51 0.86878 -53.90369 39975 ft 423 kts 334°
2026-05-06 21:51 0.92200 -53.92985 39976 ft 423 kts 334°
2026-05-06 21:52 0.97486 -53.95584 39975 ft 424 kts 334°
2026-05-06 21:52 1.02791 -53.98192 39974 ft 424 kts 333°
2026-05-06 21:53 1.08083 -54.00793 39972 ft 423 kts 333°
2026-05-06 21:53 1.13410 -54.03413 39973 ft 425 kts 333°
2026-05-06 21:54 1.18709 -54.06018 39974 ft 424 kts 333°
2026-05-06 21:54 1.24027 -54.08633 39975 ft 425 kts 333°
2026-05-06 21:55 1.29327 -54.11239 39975 ft 425 kts 333°
2026-05-06 21:55 1.34653 -54.13858 39977 ft 424 kts 333°
2026-05-06 21:56 1.39943 -54.16460 39979 ft 423 kts 333°
2026-05-06 21:56 1.45240 -54.19064 39980 ft 424 kts 333°
2026-05-06 21:57 1.50544 -54.21673 39980 ft 423 kts 333°
2026-05-06 21:57 1.55833 -54.24275 39979 ft 423 kts 333°
2026-05-06 21:58 1.61132 -54.26881 39979 ft 424 kts 333°
2026-05-06 21:58 1.66393 -54.29469 39980 ft 423 kts 333°
2026-05-06 21:59 1.71702 -54.32081 39977 ft 423 kts 332°
2026-05-06 21:59 1.76963 -54.34669 39977 ft 422 kts 332°
2026-05-06 22:00 1.82243 -54.37266 39980 ft 421 kts 332°
2026-05-06 22:00 1.87503 -54.39855 39982 ft 421 kts 333°
2026-05-06 22:01 1.92753 -54.42439 39985 ft 421 kts 332°
2026-05-06 22:01 1.98022 -54.45031 39984 ft 421 kts 332°
2026-05-06 22:02 2.03275 -54.47617 39986 ft 420 kts 333°
2026-05-06 22:02 2.08508 -54.50192 39988 ft 419 kts 332°
2026-05-06 22:03 2.13755 -54.52774 39989 ft 419 kts 333°
2026-05-06 22:03 2.19000 -54.55356 39943 ft 412 kts 332°
2026-05-06 22:04 2.21531 -54.56602 39444 ft 404 kts 332°
2026-05-06 22:04 2.24062 -54.57849 38994 ft 406 kts 333°
2026-05-06 22:04 2.26640 -54.59118 39020 ft 417 kts 333°
2026-05-06 22:04 2.29278 -54.60416 39007 ft 423 kts 332°
2026-05-06 22:05 2.34545 -54.63010 38995 ft 421 kts 333°
2026-05-06 22:05 2.39789 -54.65592 38999 ft 420 kts 333°
2026-05-06 22:06 2.45063 -54.68188 39001 ft 420 kts 334°
2026-05-06 22:06 2.50684 -54.69817 39013 ft 422 kts 350°
2026-05-06 22:07 2.56504 -54.70757 39000 ft 422 kts 349°
2026-05-06 22:07 2.62279 -54.71707 38996 ft 421 kts 349°
2026-05-06 22:08 2.68079 -54.72662 38993 ft 421 kts 349°
2026-05-06 22:08 2.73861 -54.73614 38990 ft 420 kts 349°
2026-05-06 22:09 2.79628 -54.74564 38987 ft 419 kts 349°
2026-05-06 22:09 2.85423 -54.75518 38986 ft 420 kts 349°
2026-05-06 22:10 2.91213 -54.76472 38985 ft 421 kts 349°
2026-05-06 22:10 2.97013 -54.77428 38983 ft 420 kts 349°
2026-05-06 22:11 3.02809 -54.78383 38983 ft 420 kts 349°
2026-05-06 22:11 3.08569 -54.79332 38989 ft 420 kts 349°
2026-05-06 22:12 3.14340 -54.80282 38994 ft 420 kts 349°
2026-05-06 22:12 3.20124 -54.81236 39001 ft 420 kts 349°
2026-05-06 22:13 3.25912 -54.82190 39012 ft 419 kts 349°
2026-05-06 22:13 3.31686 -54.83142 39004 ft 420 kts 349°
2026-05-06 22:14 3.37468 -54.84095 38999 ft 420 kts 349°
2026-05-06 22:14 3.43277 -54.85053 38988 ft 421 kts 349°
2026-05-06 22:15 3.49024 -54.86000 38981 ft 420 kts 349°
2026-05-06 22:15 3.54821 -54.86956 38977 ft 421 kts 350°
2026-05-06 22:16 3.60636 -54.87916 38975 ft 421 kts 349°
2026-05-06 22:16 3.66404 -54.88867 38975 ft 420 kts 349°
2026-05-06 22:17 3.72167 -54.89818 38974 ft 419 kts 350°
2026-05-06 22:17 3.77957 -54.90774 38972 ft 420 kts 349°
2026-05-06 22:18 3.83722 -54.91725 38971 ft 421 kts 350°
2026-05-06 22:18 3.89531 -54.92684 38965 ft 421 kts 349°
2026-05-06 22:19 3.95320 -54.93639 38966 ft 421 kts 350°
2026-05-06 22:19 4.01117 -54.94597 38971 ft 421 kts 350°
2026-05-06 22:20 4.06918 -54.95554 38984 ft 421 kts 350°
2026-05-06 22:20 4.12732 -54.96514 38986 ft 422 kts 350°
2026-05-06 22:21 4.18541 -54.97474 38985 ft 422 kts 350°
2026-05-06 22:21 4.24341 -54.98432 38977 ft 420 kts 349°
2026-05-06 22:22 4.30126 -54.99388 38971 ft 419 kts 349°
2026-05-06 22:22 4.35898 -55.00342 38968 ft 419 kts 349°
2026-05-06 22:23 4.41671 -55.01296 38962 ft 419 kts 349°
2026-05-06 22:23 4.47420 -55.02247 38956 ft 419 kts 349°
2026-05-06 22:24 4.53221 -55.03205 38955 ft 420 kts 349°
2026-05-06 22:24 4.59010 -55.04163 38954 ft 422 kts 349°
2026-05-06 22:25 4.64799 -55.05120 38952 ft 422 kts 349°
2026-05-06 22:25 4.70619 -55.06083 38952 ft 422 kts 349°
2026-05-06 22:26 4.76426 -55.07044 38952 ft 422 kts 349°
2026-05-06 22:26 4.82230 -55.08004 38951 ft 422 kts 349°
2026-05-06 22:27 4.88047 -55.08967 38951 ft 424 kts 349°
2026-05-06 22:27 4.93894 -55.09935 38951 ft 425 kts 349°
2026-05-06 22:28 4.99730 -55.10901 38952 ft 426 kts 349°
2026-05-06 22:28 5.05576 -55.11869 38951 ft 426 kts 349°
2026-05-06 22:29 5.11428 -55.12838 38951 ft 425 kts 349°
2026-05-06 22:29 5.17271 -55.13806 38953 ft 424 kts 349°
2026-05-06 22:30 5.23118 -55.14775 38956 ft 425 kts 349°
2026-05-06 22:30 5.28976 -55.15745 38957 ft 425 kts 349°
2026-05-06 22:31 5.34826 -55.16715 38961 ft 424 kts 349°
2026-05-06 22:31 5.40627 -55.17677 38963 ft 424 kts 349°
2026-05-06 22:32 5.46458 -55.18695 38961 ft 424 kts 346°
2026-05-06 22:32 5.52218 -55.19987 38963 ft 423 kts 346°
2026-05-06 22:33 5.57971 -55.21257 38964 ft 422 kts 346°
2026-05-06 22:33 5.63741 -55.22530 38962 ft 423 kts 346°
2026-05-06 22:34 5.69504 -55.23802 38961 ft 423 kts 346°
2026-05-06 22:34 5.75277 -55.25075 38962 ft 422 kts 346°
2026-05-06 22:35 5.81023 -55.26344 38963 ft 421 kts 346°
2026-05-06 22:35 5.86757 -55.27610 38966 ft 421 kts 346°
2026-05-06 22:36 5.92494 -55.28876 38966 ft 421 kts 346°
2026-05-06 22:36 5.98210 -55.30138 38966 ft 420 kts 346°
2026-05-06 22:37 6.03939 -55.31404 38963 ft 420 kts 346°
2026-05-06 22:37 6.09650 -55.32666 38964 ft 421 kts 346°
2026-05-06 22:38 6.15391 -55.33935 38966 ft 422 kts 346°
2026-05-06 22:38 6.21155 -55.35209 38965 ft 421 kts 346°
2026-05-06 22:39 6.26887 -55.36476 38964 ft 421 kts 346°
2026-05-06 22:39 6.32615 -55.37743 38965 ft 421 kts 346°
2026-05-06 22:40 6.38339 -55.39009 38966 ft 421 kts 346°
2026-05-06 22:40 6.44072 -55.40277 38965 ft 421 kts 346°
2026-05-06 22:41 6.52668 -55.42179 38966 ft 421 kts 346°
2026-05-06 22:42 6.58401 -55.43448 38966 ft 421 kts 346°
2026-05-06 22:42 6.64160 -55.44723 38964 ft 421 kts 346°
2026-05-06 22:43 6.69867 -55.45987 38965 ft 421 kts 346°
2026-05-06 22:43 6.75596 -55.47257 38967 ft 421 kts 346°
2026-05-06 22:44 6.81333 -55.48528 38964 ft 421 kts 346°
2026-05-06 22:44 6.87050 -55.49795 38965 ft 421 kts 346°
2026-05-06 22:45 6.92794 -55.51068 38965 ft 421 kts 346°
2026-05-06 22:45 6.98531 -55.52340 38966 ft 422 kts 346°
2026-05-06 22:46 7.04286 -55.53616 38966 ft 422 kts 346°
2026-05-06 22:46 7.10017 -55.54888 38965 ft 422 kts 346°
2026-05-06 22:47 7.15756 -55.56162 38966 ft 421 kts 346°
2026-05-06 22:47 7.21491 -55.57435 38965 ft 422 kts 346°
2026-05-06 22:48 7.27259 -55.58715 38967 ft 422 kts 346°
2026-05-06 22:48 7.33013 -55.59993 38969 ft 421 kts 346°
2026-05-06 22:49 7.38718 -55.61261 38970 ft 421 kts 345°
2026-05-06 22:49 7.44455 -55.62535 38967 ft 421 kts 345°
2026-05-06 22:50 7.50212 -55.63815 38969 ft 422 kts 345°
2026-05-06 22:50 7.55954 -55.65092 38972 ft 422 kts 345°
2026-05-06 22:51 7.61689 -55.66367 38978 ft 421 kts 345°
2026-05-06 22:51 7.67425 -55.67643 38986 ft 421 kts 345°
2026-05-06 22:52 7.73166 -55.68920 38986 ft 420 kts 345°
2026-05-06 22:52 7.78895 -55.70195 38987 ft 421 kts 345°
2026-05-06 22:53 7.84602 -55.71466 38987 ft 420 kts 345°
2026-05-06 22:53 7.90323 -55.72740 38992 ft 420 kts 345°
2026-05-06 22:54 7.96066 -55.74019 38986 ft 421 kts 345°
2026-05-06 22:54 8.01796 -55.75296 38989 ft 421 kts 345°
2026-05-06 22:55 8.07511 -55.76570 38990 ft 420 kts 345°
2026-05-06 22:55 8.13229 -55.77845 38987 ft 420 kts 345°
2026-05-06 22:56 8.18975 -55.79126 38988 ft 421 kts 345°
2026-05-06 22:56 8.24703 -55.80403 38989 ft 421 kts 345°
2026-05-06 22:57 8.30410 -55.81677 38989 ft 421 kts 345°
2026-05-06 22:57 8.36165 -55.82962 38986 ft 421 kts 345°
2026-05-06 22:58 8.41891 -55.84240 38989 ft 421 kts 345°
2026-05-06 22:58 8.47586 -55.85511 38969 ft 407 kts 345°
2026-05-06 22:58 8.50285 -55.86113 38957 ft 388 kts 345°
2026-05-06 22:59 8.52886 -55.86695 38964 ft 375 kts 345°
2026-05-06 22:59 8.58059 -55.87852 38996 ft 385 kts 345°
2026-05-06 23:00 8.63375 -55.89040 38984 ft 389 kts 345°
2026-05-06 23:00 8.68691 -55.90229 38978 ft 390 kts 345°
2026-05-06 23:01 8.73963 -55.91408 38988 ft 387 kts 345°
2026-05-06 23:01 8.79258 -55.92593 38989 ft 388 kts 345°
2026-05-06 23:02 8.84523 -55.93771 38983 ft 385 kts 345°
2026-05-06 23:02 8.87095 -55.94346 38966 ft 374 kts 345°
2026-05-06 23:02 8.89644 -55.94917 38976 ft 368 kts 345°
2026-05-06 23:03 8.94653 -55.96039 38991 ft 372 kts 345°
2026-05-06 23:03 8.99704 -55.97171 38985 ft 372 kts 345°
2026-05-06 23:04 9.04788 -55.98309 38988 ft 372 kts 344°
2026-05-06 23:04 9.09565 -56.00196 39001 ft 366 kts 323°
2026-05-06 23:05 9.13473 -56.03421 38987 ft 363 kts 317°
2026-05-06 23:05 9.17320 -56.06739 38989 ft 364 kts 317°
2026-05-06 23:06 9.21190 -56.10070 38991 ft 365 kts 317°
2026-05-06 23:06 9.25058 -56.13401 38992 ft 365 kts 317°
2026-05-06 23:07 9.28922 -56.16729 38993 ft 365 kts 317°
2026-05-06 23:07 9.32817 -56.20084 38992 ft 366 kts 317°
2026-05-06 23:08 9.36679 -56.23412 38996 ft 366 kts 317°
2026-05-06 23:08 9.40546 -56.26745 38992 ft 365 kts 317°
2026-05-06 23:09 9.44432 -56.30096 39000 ft 366 kts 317°
2026-05-06 23:09 9.48300 -56.33432 38997 ft 367 kts 317°
2026-05-06 23:10 9.52173 -56.36774 38997 ft 366 kts 317°
2026-05-06 23:10 9.56056 -56.40125 39001 ft 366 kts 318°
2026-05-06 23:11 9.59940 -56.43478 39002 ft 365 kts 318°
2026-05-06 23:11 9.63801 -56.46812 39006 ft 365 kts 318°
2026-05-06 23:12 9.67679 -56.50162 39007 ft 367 kts 318°
2026-05-06 23:12 9.71560 -56.53516 39007 ft 367 kts 318°
2026-05-06 23:13 9.75431 -56.56863 39005 ft 366 kts 318°
2026-05-06 23:13 9.79310 -56.60216 39007 ft 366 kts 318°
2026-05-06 23:14 9.83189 -56.63572 39004 ft 366 kts 318°
2026-05-06 23:14 9.87054 -56.66916 39003 ft 362 kts 318°
2026-05-06 23:14 9.88927 -56.68537 38976 ft 348 kts 318°
2026-05-06 23:15 9.90747 -56.70112 38987 ft 339 kts 318°
2026-05-06 23:15 9.94369 -56.73248 39013 ft 345 kts 318°
2026-05-06 23:16 9.98026 -56.76415 39007 ft 346 kts 319°
2026-05-06 23:16 10.01682 -56.79582 39009 ft 345 kts 319°
2026-05-06 23:17 10.05325 -56.82739 39006 ft 345 kts 319°
2026-05-06 23:17 10.08975 -56.85903 39007 ft 344 kts 319°
2026-05-06 23:18 10.12616 -56.89061 39007 ft 344 kts 319°
2026-05-06 23:18 10.16255 -56.92217 39008 ft 344 kts 318°
2026-05-06 23:19 10.19909 -56.95388 39007 ft 346 kts 319°
2026-05-06 23:19 10.23574 -56.98568 39007 ft 346 kts 319°
2026-05-06 23:20 10.27218 -57.01732 39007 ft 345 kts 319°
2026-05-06 23:20 10.30870 -57.04903 39007 ft 345 kts 319°
2026-05-06 23:21 10.34492 -57.08051 39008 ft 344 kts 319°
2026-05-06 23:21 10.38144 -57.11224 39007 ft 344 kts 318°
2026-05-06 23:22 10.41796 -57.14398 39009 ft 346 kts 318°
2026-05-06 23:22 10.45446 -57.17572 39008 ft 346 kts 318°
2026-05-06 23:23 10.49100 -57.20750 39008 ft 346 kts 318°
2026-05-06 23:23 10.52772 -57.23946 39007 ft 345 kts 318°
2026-05-06 23:24 10.56416 -57.27118 39008 ft 345 kts 319°
2026-05-06 23:24 10.60077 -57.30305 39008 ft 345 kts 319°
2026-05-06 23:25 10.63707 -57.33467 39007 ft 345 kts 318°
2026-05-06 23:25 10.67355 -57.36646 39007 ft 345 kts 318°
2026-05-06 23:26 10.71014 -57.39834 39007 ft 347 kts 318°
2026-05-06 23:26 10.74671 -57.43022 39008 ft 347 kts 318°
2026-05-06 23:27 10.78339 -57.46222 39008 ft 346 kts 318°
2026-05-06 23:27 10.81976 -57.49395 39007 ft 346 kts 318°
2026-05-06 23:28 10.85632 -57.52585 39007 ft 346 kts 318°
2026-05-06 23:28 10.89307 -57.55793 39007 ft 346 kts 318°
2026-05-06 23:29 10.92946 -57.58971 39007 ft 347 kts 318°
2026-05-06 23:29 10.96618 -57.62178 39008 ft 347 kts 318°
2026-05-06 23:30 11.00285 -57.65383 39008 ft 347 kts 318°
2026-05-06 23:30 11.03938 -57.68576 39009 ft 347 kts 318°
2026-05-06 23:31 11.07605 -57.71783 39013 ft 346 kts 318°
2026-05-06 23:31 11.11252 -57.74974 39011 ft 346 kts 318°
2026-05-06 23:32 11.14897 -57.78163 39013 ft 347 kts 317°
2026-05-06 23:32 11.18574 -57.81382 39011 ft 347 kts 318°
2026-05-06 23:33 11.22239 -57.84592 39009 ft 347 kts 317°
2026-05-06 23:33 11.25907 -57.87805 39008 ft 347 kts 317°
2026-05-06 23:34 11.29559 -57.91005 39008 ft 347 kts 317°
2026-05-06 23:34 11.33213 -57.94208 39010 ft 347 kts 317°
2026-05-06 23:35 11.36887 -57.97430 39013 ft 346 kts 317°
2026-05-06 23:35 11.40524 -58.00619 39014 ft 346 kts 317°
2026-05-06 23:36 11.44177 -58.03826 39016 ft 348 kts 317°
2026-05-06 23:36 11.47857 -58.07056 39021 ft 348 kts 317°
2026-05-06 23:37 11.51514 -58.10267 39023 ft 347 kts 317°
2026-05-06 23:37 11.55185 -58.13492 39029 ft 347 kts 317°
2026-05-06 23:38 11.58825 -58.16691 39028 ft 345 kts 317°
2026-05-06 23:38 11.62482 -58.19906 39027 ft 345 kts 317°
2026-05-06 23:39 11.66119 -58.23104 38767 ft 348 kts 317°
2026-05-06 23:39 11.67946 -58.24711 38344 ft 350 kts 317°
2026-05-06 23:39 11.69785 -58.26328 37883 ft 349 kts 317°
2026-05-06 23:39 11.71617 -58.27940 37412 ft 347 kts 317°
2026-05-06 23:40 11.73463 -58.29565 36937 ft 346 kts 317°
2026-05-06 23:40 11.75271 -58.31157 36474 ft 345 kts 317°
2026-05-06 23:40 11.77099 -58.32767 36013 ft 345 kts 317°
2026-05-06 23:40 11.78909 -58.34360 35634 ft 345 kts 317°
2026-05-06 23:41 11.80727 -58.35962 35250 ft 346 kts 317°
2026-05-06 23:41 11.82542 -58.37561 34856 ft 347 kts 316°
2026-05-06 23:41 11.84364 -58.39166 34453 ft 347 kts 317°
2026-05-06 23:41 11.86198 -58.40782 34051 ft 348 kts 316°
2026-05-06 23:42 11.88031 -58.42398 33652 ft 349 kts 316°
2026-05-06 23:42 11.89879 -58.44027 33259 ft 350 kts 317°
2026-05-06 23:42 11.91726 -58.45656 32867 ft 352 kts 316°
2026-05-06 23:42 11.93584 -58.47294 32496 ft 353 kts 316°
2026-05-06 23:43 11.95447 -58.48937 32155 ft 354 kts 316°
2026-05-06 23:43 11.97303 -58.50574 31813 ft 355 kts 316°
2026-05-06 23:43 11.99185 -58.52235 31473 ft 356 kts 316°
2026-05-06 23:43 12.01050 -58.53881 31138 ft 357 kts 316°
2026-05-06 23:44 12.02920 -58.55532 30804 ft 358 kts 316°
2026-05-06 23:44 12.04819 -58.57209 30465 ft 359 kts 315°
2026-05-06 23:44 12.06716 -58.58883 30129 ft 360 kts 315°
2026-05-06 23:44 12.08606 -58.60553 29779 ft 361 kts 315°
2026-05-06 23:45 12.10509 -58.62233 29284 ft 360 kts 315°
2026-05-06 23:45 12.12375 -58.63882 28788 ft 355 kts 315°
2026-05-06 23:45 12.14229 -58.65520 28282 ft 351 kts 314°
2026-05-06 23:45 12.16061 -58.67140 27856 ft 344 kts 314°
2026-05-06 23:46 12.17855 -58.68726 27474 ft 337 kts 315°
2026-05-06 23:46 12.19583 -58.70253 26989 ft 323 kts 315°
2026-05-06 23:46 12.21251 -58.71727 26572 ft 307 kts 314°
2026-05-06 23:46 12.22826 -58.73120 26276 ft 289 kts 314°
2026-05-06 23:47 12.24314 -58.74436 26064 ft 277 kts 314°
2026-05-06 23:47 12.25743 -58.75702 25820 ft 272 kts 314°
2026-05-06 23:47 12.27182 -58.76976 25553 ft 272 kts 314°
2026-05-06 23:47 12.28613 -58.78245 25271 ft 274 kts 314°
2026-05-06 23:48 12.30042 -58.79509 24982 ft 273 kts 314°
2026-05-06 23:48 12.31488 -58.80790 24683 ft 271 kts 314°
2026-05-06 23:48 12.32907 -58.82046 24363 ft 270 kts 314°
2026-05-06 23:48 12.34319 -58.83296 24041 ft 268 kts 314°
2026-05-06 23:49 12.35731 -58.84547 23717 ft 266 kts 315°
2026-05-06 23:49 12.37112 -58.85770 23399 ft 263 kts 315°
2026-05-06 23:49 12.38484 -58.86986 23093 ft 261 kts 315°
2026-05-06 23:49 12.39867 -58.88211 22796 ft 259 kts 315°
2026-05-06 23:50 12.41218 -58.89409 22504 ft 258 kts 315°
2026-05-06 23:50 12.43915 -58.91800 21947 ft 256 kts 316°
2026-05-06 23:50 12.45259 -58.92992 21674 ft 256 kts 316°
2026-05-06 23:51 12.46597 -58.94179 21397 ft 255 kts 316°
2026-05-06 23:51 12.47950 -58.95379 21117 ft 254 kts 316°
2026-05-06 23:51 12.49275 -58.96553 20841 ft 253 kts 316°
2026-05-06 23:51 12.50602 -58.97731 20564 ft 251 kts 317°
2026-05-06 23:52 12.51913 -58.98894 20289 ft 250 kts 317°
2026-05-06 23:52 12.53237 -59.00069 20006 ft 250 kts 317°
2026-05-06 23:52 12.54549 -59.01234 19704 ft 249 kts 317°
2026-05-06 23:52 12.55850 -59.02388 19423 ft 247 kts 318°
2026-05-06 23:53 12.57132 -59.03526 19144 ft 244 kts 318°
2026-05-06 23:53 12.58419 -59.04669 18859 ft 242 kts 318°
2026-05-06 23:53 12.59683 -59.05791 18577 ft 242 kts 318°
2026-05-06 23:53 12.60957 -59.06923 18306 ft 242 kts 318°
2026-05-06 23:54 12.62233 -59.08056 18052 ft 243 kts 317°
2026-05-06 23:54 12.63511 -59.09191 17800 ft 243 kts 317°
2026-05-06 23:54 12.64790 -59.10329 17546 ft 242 kts 318°
2026-05-06 23:54 12.66055 -59.11453 17288 ft 241 kts 318°
2026-05-06 23:55 12.67320 -59.12577 17016 ft 239 kts 319°
2026-05-06 23:55 12.68564 -59.13683 16731 ft 237 kts 320°
2026-05-06 23:55 12.69796 -59.14778 16445 ft 235 kts 320°
2026-05-06 23:55 12.71043 -59.15887 16154 ft 234 kts 320°
2026-05-06 23:56 12.72260 -59.16969 15875 ft 232 kts 320°
2026-05-06 23:56 12.73476 -59.18051 15614 ft 231 kts 321°
2026-05-06 23:56 12.74691 -59.19131 15354 ft 230 kts 321°
2026-05-06 23:56 12.75905 -59.20211 15096 ft 230 kts 321°
2026-05-06 23:57 12.77115 -59.21287 14835 ft 230 kts 321°
2026-05-06 23:57 12.78314 -59.22354 14576 ft 229 kts 322°
2026-05-06 23:57 12.79510 -59.23418 14334 ft 227 kts 322°
2026-05-06 23:57 12.80699 -59.24477 14095 ft 226 kts 322°
2026-05-06 23:58 12.81900 -59.25547 13854 ft 225 kts 323°
2026-05-06 23:58 12.83078 -59.26595 13617 ft 224 kts 323°
2026-05-06 23:58 12.84254 -59.27642 13378 ft 223 kts 323°
2026-05-06 23:58 12.85419 -59.28679 13141 ft 223 kts 323°
2026-05-06 23:59 12.86598 -59.29729 12901 ft 222 kts 324°
2026-05-06 23:59 12.87767 -59.30770 12664 ft 222 kts 323°
2026-05-06 23:59 12.88932 -59.31808 12428 ft 222 kts 323°
2026-05-06 23:59 12.90090 -59.32839 12193 ft 222 kts 323°
2026-05-07 00:00 12.91066 -59.34061 11945 ft 229 kts 291°
2026-05-07 00:00 12.91332 -59.35698 11734 ft 233 kts 281°
2026-05-07 00:00 12.91615 -59.37328 11393 ft 235 kts 284°
2026-05-07 00:00 12.91983 -59.38965 11050 ft 236 kts 286°
2026-05-07 00:01 12.92391 -59.40584 10706 ft 237 kts 287°
2026-05-07 00:01 12.92831 -59.42234 10348 ft 238 kts 287°
2026-05-07 00:01 12.93273 -59.43847 10001 ft 239 kts 287°
2026-05-07 00:01 12.93741 -59.45529 9453 ft 249 kts 287°
2026-05-07 00:02 12.94220 -59.47241 8891 ft 258 kts 287°
2026-05-07 00:02 12.94729 -59.49050 8310 ft 266 kts 287°
2026-05-07 00:02 12.95243 -59.50872 7738 ft 272 kts 287°
2026-05-07 00:02 12.95775 -59.52760 7153 ft 277 kts 287°
2026-05-07 00:03 12.96309 -59.54652 6569 ft 281 kts 287°
2026-05-07 00:03 12.96852 -59.56576 5984 ft 284 kts 287°
2026-05-07 00:03 12.97404 -59.58535 5394 ft 287 kts 287°
2026-05-07 00:03 12.97946 -59.60460 5076 ft 277 kts 287°
2026-05-07 00:04 12.98473 -59.62331 4827 ft 267 kts 288°
2026-05-07 00:04 12.98978 -59.64125 4579 ft 259 kts 288°
2026-05-07 00:04 12.99474 -59.65885 4325 ft 251 kts 288°
2026-05-07 00:04 12.99944 -59.67556 4163 ft 240 kts 288°
2026-05-07 00:05 13.00397 -59.69161 4019 ft 230 kts 289°
2026-05-07 00:05 13.01243 -59.70462 3864 ft 212 kts 330°
2026-05-07 00:05 13.02564 -59.70782 3751 ft 191 kts 15°
2026-05-07 00:05 13.03620 -59.70097 3648 ft 180 kts 59°
2026-05-07 00:06 13.04007 -59.68884 3574 ft 181 kts 78°
2026-05-07 00:06 13.04070 -59.67619 3664 ft 173 kts 93°
2026-05-07 00:06 13.03961 -59.66473 3802 ft 147 kts 94°
2026-05-07 00:06 13.03913 -59.65491 3980 ft 136 kts 88°
2026-05-07 00:07 13.03946 -59.64532 4039 ft 134 kts 84°
2026-05-07 00:07 13.04055 -59.63612 3894 ft 128 kts 79°
2026-05-07 00:07 13.04228 -59.62714 3635 ft 129 kts 77°
2026-05-07 00:07 13.04396 -59.61808 3352 ft 131 kts 78°
2026-05-07 00:08 13.04580 -59.60888 3079 ft 132 kts 76°
2026-05-07 00:08 13.04796 -59.59974 2815 ft 131 kts 75°
2026-05-07 00:08 13.05011 -59.59062 2515 ft 133 kts 75°
2026-05-07 00:08 13.05246 -59.58142 2059 ft 133 kts 75°
2026-05-07 00:09 13.05461 -59.57248 1633 ft 129 kts 76°
2026-05-07 00:09 13.05669 -59.56372 1360 ft 123 kts 75°
2026-05-07 00:09 13.05892 -59.55524 1101 ft 121 kts 75°
2026-05-07 00:09 13.06093 -59.54726 898 ft 109 kts 75°
2026-05-07 00:10 13.06283 -59.53969 772 ft 109 kts 76°
2026-05-07 00:10 13.06467 -59.53229 668 ft 106 kts 75°
2026-05-07 00:10 13.06656 -59.52492 527 ft 106 kts 75°
2026-05-07 00:10 13.06840 -59.51763 403 ft 106 kts 76°
2026-05-07 00:11 13.07014 -59.51035 287 ft 104 kts 75°
2026-05-07 00:11 13.07188 -59.50320 178 ft 99 kts 76°
2026-05-07 00:11 13.07330 -59.49754 173 ft 64 kts 75°
2026-05-07 00:11 13.07428 -59.49357 171 ft 57 kts 76°
2026-05-07 00:12 13.07514 -59.49027 171 ft 26 kts 58°
2026-05-07 00:12 13.07628 -59.48900 174 ft 17 kts 46°
2026-05-07 00:12 13.07655 -59.48871 174 ft 0 kts 46°
2026-05-07 00:12 13.07656 -59.48869 174 ft 0 kts 46°
2026-05-07 00:13 13.07657 -59.48869 174 ft 0 kts 46°
2026-05-07 00:13 13.07669 -59.48855 175 ft 4 kts 46°
2026-05-07 00:14 13.07706 -59.48819 175 ft 9 kts 29°
2026-05-07 00:14 13.07720 -59.48860 175 ft 10 kts 249°
2026-05-07 00:14 13.07695 -59.48953 176 ft 15 kts 256°
2026-05-07 00:14 13.07665 -59.49077 176 ft 20 kts 256°
2026-05-07 00:15 13.07629 -59.49223 177 ft 11 kts 264°
2026-05-07 00:15 13.07665 -59.49257 179 ft 5 kts 349°
2026-05-07 00:15 13.07675 -59.49260 179 ft 0 kts 343°
2026-05-07 00:15 13.07676 -59.49260 179 ft 0 kts 343°